Le nostre stazioni meteo in Italia

Pubblicità
Il mio iltempo24.it
Vipiteno, Italia (16014): Temperatura & dewpoint: 07.12.2018 22:00:00 - 13.12.2018 22:00:00 (CET)Vipiteno, Italia (16014): velocità del vento: 07.12.2018 22:00:00 - 13.12.2018 22:00:00 (CET)Vipiteno, Italia (16014): direzione del vento: 07.12.2018 22:00:00 - 13.12.2018 22:00:00 (CET)Vipiteno, Italia (16014): precipitazioni: 07.12.2018 22:00:00 - 13.12.2018 22:00:00 (CET)
Data & Tempo tt [°C] td [°C] ff [km/h] ff [kn] dd rr [mm]
13.12.2018 22:00:00 - - - - - -
13.12.2018 21:00:00 -7,5 -10,4 0 0 N -
13.12.2018 20:00:00 -7,9 -11,3 0 0 N -
13.12.2018 19:00:00 -7,5 -11,1 0 0 N 0,0
13.12.2018 18:00:00 -7,3 -11,2 0 0 N -
13.12.2018 17:00:00 -5,8 -9,7 0 0 N -
13.12.2018 16:00:00 -5,1 -10,0 0 0 N -
13.12.2018 15:00:00 -5,0 -9,9 0 0 N -
13.12.2018 14:00:00 -4,9 -9,6 0 0 N -
13.12.2018 13:00:00 -3,5 -5,7 2 1 SSE 0,0
13.12.2018 12:00:00 -6,9 -8,6 0 0 N -
13.12.2018 11:00:00 -8,8 -10,5 0 0 N -
13.12.2018 10:00:00 -10,7 -12,5 0 0 N -
13.12.2018 09:00:00 -14,1 -16,2 0 0 N -
13.12.2018 08:00:00 -14,2 -16,3 0 0 N -
13.12.2018 07:00:00 -13,7 -15,8 0 0 N 0,0
13.12.2018 06:00:00 -13,6 -15,7 0 0 N -
13.12.2018 05:00:00 -13,4 -15,5 0 0 N -
13.12.2018 04:00:00 -13,2 -15,5 0 0 N -
13.12.2018 03:00:00 -12,7 -15,0 0 0 N -
13.12.2018 02:00:00 -12,7 -15,3 0 0 N -
13.12.2018 01:00:00 -12,2 -14,8 0 0 N 0,0
13.12.2018 00:00:00 -11,2 -14,0 0 0 N -
12.12.2018 23:00:00 -10,8 -13,7 0 0 N -
12.12.2018 22:00:00 -9,2 -12,2 0 0 N -
12.12.2018 21:00:00 -8,2 -11,7 0 0 N -
12.12.2018 20:00:00 -7,4 -11,1 0 0 N -
12.12.2018 19:00:00 -6,3 -10,4 0 0 N 0,0
12.12.2018 18:00:00 -5,0 -9,2 5 3 O -
12.12.2018 17:00:00 -4,2 -8,9 0 0 N -
12.12.2018 16:00:00 -3,0 -8,1 2 1 NO -
12.12.2018 15:00:00 -2,7 -8,1 9 5 OSO -
12.12.2018 14:00:00 -2,1 -9,1 2 1 SO -
12.12.2018 13:00:00 -0,7 -7,6 2 1 ENE 0,0
12.12.2018 12:00:00 -2,2 -8,0 5 3 O -
12.12.2018 11:00:00 -5,4 -9,7 2 1 NNO -
12.12.2018 10:00:00 -6,9 -10,1 2 1 O -
12.12.2018 09:00:00 -8,6 -11,8 0 0 N -
12.12.2018 08:00:00 -8,3 -12,0 0 0 N -
12.12.2018 07:00:00 -7,6 -11,3 0 0 N 0,0
12.12.2018 06:00:00 -7,8 -12,0 0 0 N -
12.12.2018 05:00:00 -7,1 -11,2 0 0 N -
12.12.2018 04:00:00 -6,8 -10,9 4 2 NO -
12.12.2018 03:00:00 -6,3 -10,6 11 6 O -
12.12.2018 02:00:00 -6,4 -10,5 8 4 O -
12.12.2018 01:00:00 -5,9 -10,2 8 4 ONO 0,0
12.12.2018 00:00:00 -5,6 -9,9 2 1 O -
11.12.2018 23:00:00 -4,9 -9,2 11 6 ONO -
11.12.2018 22:00:00 -4,4 -8,8 5 3 O -
11.12.2018 21:00:00 -3,5 -8,1 13 7 O -
11.12.2018 20:00:00 -2,8 -7,6 15 8 OSO -
11.12.2018 19:00:00 -2,2 -7,2 13 7 O -
11.12.2018 18:00:00 -1,5 -6,7 13 7 OSO -
11.12.2018 17:00:00 0,0 -8,1 13 7 NNO -
11.12.2018 16:00:00 0,5 -8,3 15 8 NO -
11.12.2018 15:00:00 0,8 -8,8 8 4 OSO -
11.12.2018 14:00:00 0,8 -9,4 15 8 NO -
11.12.2018 13:00:00 0,8 -9,4 13 7 ONO -
11.12.2018 12:00:00 0,8 -9,1 13 7 O -
11.12.2018 11:00:00 0,3 -8,5 13 7 OSO -
11.12.2018 10:00:00 0,0 -7,6 15 8 NNO -
11.12.2018 09:00:00 -1,0 -5,5 11 6 O -
11.12.2018 08:00:00 -1,0 -6,8 13 7 ONO -
11.12.2018 07:00:00 -1,7 -5,8 15 8 O 0,0
11.12.2018 06:00:00 -0,5 -6,8 15 8 O -
11.12.2018 05:00:00 -0,3 -7,0 15 8 O -
11.12.2018 04:00:00 -0,6 -5,5 13 7 O -
11.12.2018 03:00:00 -0,3 -5,6 15 8 ONO -
11.12.2018 02:00:00 -1,3 -2,8 5 3 OSO -
11.12.2018 01:00:00 -1,0 -2,5 13 7 O 0,0
11.12.2018 00:00:00 -0,9 -2,5 15 8 ONO -
10.12.2018 23:00:00 -0,7 -2,8 13 7 OSO -
10.12.2018 22:00:00 -0,8 -3,0 11 6 ONO -
10.12.2018 21:00:00 -0,5 -3,7 0 0 N -
10.12.2018 20:00:00 0,2 -3,9 13 7 O -
10.12.2018 19:00:00 0,7 -5,4 13 7 OSO 0,0
10.12.2018 18:00:00 0,9 -3,8 15 8 O -
10.12.2018 17:00:00 1,6 -5,2 16 9 O -
10.12.2018 16:00:00 1,9 -4,5 15 8 O -
10.12.2018 15:00:00 1,9 -4,7 21 11 ONO -
10.12.2018 14:00:00 2,9 -5,9 22 12 ONO -
10.12.2018 13:00:00 2,6 -4,9 22 12 ONO 0,0
10.12.2018 12:00:00 2,3 -2,9 21 11 OSO -
10.12.2018 11:00:00 3,0 -5,3 13 7 OSO -
10.12.2018 10:00:00 3,0 -5,3 11 6 O -
10.12.2018 09:00:00 2,9 -5,1 15 8 O -
10.12.2018 08:00:00 2,8 -3,8 16 9 O -
10.12.2018 07:00:00 2,0 -1,0 16 9 O -
10.12.2018 06:00:00 2,3 -1,2 18 10 OSO -
10.12.2018 05:00:00 2,8 -2,0 15 8 O -
10.12.2018 04:00:00 1,8 -0,2 21 11 O -
10.12.2018 03:00:00 1,4 -0,1 21 11 OSO -
10.12.2018 02:00:00 1,5 0,0 13 7 OSO -
10.12.2018 01:00:00 1,2 -0,3 4 2 SSO -
10.12.2018 00:00:00 1,0 -0,5 5 3 NNO -
09.12.2018 23:00:00 0,8 -0,7 0 0 N -
09.12.2018 22:00:00 0,7 -0,8 5 3 SO -
09.12.2018 21:00:00 0,4 -1,1 2 1 NNO -
09.12.2018 20:00:00 0,4 -1,1 0 0 N -
09.12.2018 19:00:00 0,5 -1,0 0 0 N -
09.12.2018 18:00:00 0,6 -0,9 0 0 N -
09.12.2018 17:00:00 0,9 -0,6 0 0 N -
09.12.2018 16:00:00 1,0 -0,5 0 0 N -
09.12.2018 15:00:00 1,3 -0,2 0 0 N -
09.12.2018 14:00:00 0,9 -0,6 0 0 N -
09.12.2018 13:00:00 1,2 -0,3 0 0 N -
09.12.2018 12:00:00 0,4 -1,1 0 0 N -
09.12.2018 11:00:00 -0,3 -1,8 0 0 N -
09.12.2018 10:00:00 -0,6 -2,4 2 1 S -
09.12.2018 09:00:00 -0,7 -3,1 0 0 N -
09.12.2018 08:00:00 -1,2 -3,3 4 2 ONO -
09.12.2018 07:00:00 -1,9 -3,8 2 1 O 0,0
09.12.2018 06:00:00 -2,3 -4,4 0 0 N -
09.12.2018 05:00:00 -2,3 -4,4 0 0 N -
09.12.2018 04:00:00 -2,2 -4,4 0 0 N -
09.12.2018 03:00:00 -2,4 -4,8 0 0 N -
09.12.2018 02:00:00 -2,1 -4,5 0 0 N -
09.12.2018 01:00:00 -2,9 -5,4 0 0 N 0,0
09.12.2018 00:00:00 -2,6 -5,1 0 0 N -
08.12.2018 23:00:00 -2,6 -5,5 0 0 N -
08.12.2018 22:00:00 -2,2 -5,6 0 0 N -
08.12.2018 21:00:00 -1,7 -5,6 0 0 N -
08.12.2018 20:00:00 -1,0 -4,9 0 0 N -
08.12.2018 19:00:00 -0,2 -4,7 2 1 NE 0,0
08.12.2018 18:00:00 1,2 -4,3 5 3 ENE -
08.12.2018 17:00:00 3,4 -4,0 5 3 OSO -
08.12.2018 16:00:00 5,0 -5,8 4 2 SSE -
08.12.2018 15:00:00 5,3 -5,2 13 7 NNO -
08.12.2018 14:00:00 5,7 -7,0 18 10 NNO -
08.12.2018 13:00:00 6,7 -6,8 15 8 NO 0,0
08.12.2018 12:00:00 5,8 -6,3 18 10 NNO -
08.12.2018 11:00:00 4,8 -5,4 22 12 NNO -
08.12.2018 10:00:00 4,1 -4,7 16 9 NO -
08.12.2018 09:00:00 3,2 -5,6 16 9 NO -
08.12.2018 08:00:00 3,4 -5,9 18 10 NO -
08.12.2018 07:00:00 3,8 -4,5 16 9 NO -
08.12.2018 06:00:00 3,9 -3,0 21 11 ONO -
08.12.2018 05:00:00 3,6 -1,2 18 10 O -
08.12.2018 04:00:00 3,0 1,5 11 6 O -
08.12.2018 03:00:00 1,9 0,6 11 6 O -
08.12.2018 02:00:00 0,8 -0,7 0 0 N -
08.12.2018 01:00:00 0,6 -0,9 0 0 N 0,0
08.12.2018 00:00:00 0,8 -0,7 0 0 N -
07.12.2018 23:00:00 0,5 -1,0 0 0 N -
07.12.2018 22:00:00 0,2 -1,3 0 0 N -

tt = Temperatura
td = dewpoint
ff = velocità del vento
dd = direzione del vento
rr = precipitazioni

Stazioni seguenti

WeatherPro
AMSI
MeteoEarth